Flag for Japan Weather past 2 weeks in Sapporo, Japan

Now
81 °F

Warm.


Feels Like: 85 °F
Forecast: 64 / 75 °F
Wind: 5 mph from Southeast

Location: Sapporo

Current Time: Jul 31, 2015 at 10:52:43 AM

Latest Report: Jul 31, 2015 at 10:00 AM


Visibility: N/A

Pressure: 29.72 "Hg

Humidity: 72%

Dew point: 71 °F

Location of SapporoLocation

Historic Weather in Sapporo — Graph

°F

Sapporo temperature yesterday

Maximum temperature yesterday: 85 °F (at 3:00 PM)
Minimum temperature yesterday: 72 °F (at 5:00 AM)
Average temperature yesterday: 78 °F

Past Weeks' High & Low Weather Summary

 TemperatureHumidityPressure
High85 °F (Jul 30, 3:00 PM)95% (Jul 19, 12:00 AM)29.96 "Hg (Jul 19, 12:00 AM)
Low56 °F (Jul 17, 4:00 AM)31% (Jul 17, 12:00 PM)29.67 "Hg (Jul 25, 2:00 PM)
Average74 °F78%29.78 "Hg
* Reported Jul 16 9:00 AM — Jul 31 9:00 AM, Sapporo, Weather by CustomWeather, © 2015

Note: Actual official high and low records may vary slightly from our data, if they occured in-between our weather recording intervals... More about our weather records

Advertising

Sapporo weather history for previous 24 hours

 ConditionsComfort  
Time TempWeatherWind HumidityBarometerVisibility
9:00 AM
Fri, Jul 31
82 °FOvercast.3 mph69%29.72 "Hg9 mi
8:00 AM81 °FWarm.5 mph69%29.72 "HgN/A
7:00 AM79 °FWarm.5 mph74%29.73 "HgN/A
5:00 AM75 °FMild.7 mph82%29.73 "HgN/A
4:00 AM75 °FMild.6 mph81%29.73 "HgN/A
3:00 AM74 °FFog.6 mph83%29.73 "Hg5 mi
2:00 AM74 °FMild.2 mph84%29.74 "HgN/A
1:00 AM76 °FMild.1 mph80%29.75 "HgN/A
12:00 AM75 °FMild.3 mph81%29.75 "HgN/A
11:00 PM
Thu, Jul 30
76 °FMild.2 mph86%29.75 "HgN/A
10:00 PM77 °FWarm.6 mph81%29.75 "HgN/A
9:00 PM78 °FPassing clouds.3 mph81%29.74 "Hg5 mi
8:00 PM78 °FWarm.3 mph80%29.75 "HgN/A
7:00 PM80 °FWarm.7 mph75%29.73 "HgN/A
6:00 PM83 °FOvercast.6 mph70%29.73 "Hg9 mi
5:00 PM84 °FWarm.8 mph69%29.72 "HgN/A
4:00 PM84 °FWarm.7 mph65%29.72 "HgN/A
3:00 PM85 °FOvercast.8 mph63%29.73 "Hg16 mi
2:00 PM82 °FWarm.6 mph66%29.75 "HgN/A
1:00 PM82 °FWarm.5 mph63%29.76 "HgN/A
12:00 PM82 °FOvercast.3 mph65%29.77 "Hg12 mi
11:00 AM81 °FWarm.5 mph70%29.78 "HgN/A
10:00 AM78 °FWarm.3 mph73%29.78 "HgN/A
Weather by CustomWeather, © 2015

See weather overviewHow to use our weather pages